[[{"header":{"parameterUnit":"m.s-1","parameterCategory":1,"la1":30.2991,"la2":30.254,"lo1":-89.0895,"lo2":-89.0444,"dy":0.0017,"dx":0.0017,"nx":28,"ny":28,"refTime":"2025-06-05T03:00:00:Z","depth":0,"parameterNumber":2,"parameterNumberName":"U-component_of_WINDS"},"data":[0,0,0,0,0,0,0,0,0,0,0,0,0,0,0,0,0,0,0,0,0,0,0,0,0,0,0,0,0,0,0,0,0,0,0,0,0,0,0,0,0,0,0,0,0,0,0,0,0,0,0,0,0,0,0,0,0,0,0.9571,0.9572,0,0.9673,0.9674,0.9676,0.9704,0.9703,0.9702,0.9702,0.9811,0.9815,0.9818,0,0,0,0,0,0,0,0,0,0,0,0,0,0.9404,0.9407,0.9571,0.9572,0.9573,0.9673,0.9674,0.9676,0.9704,0.9703,0.9702,0.9702,0.981,0.9814,0.9819,0,0,0,0,0,0,0,0,0,0,0,0,0,0.9488,0.9408,0.9571,0.9599,0.9603,0.9673,0.9674,0.9676,0.9704,0.9703,0.9702,0.9701,0.9809,0.9814,0.9819,0.9869,0,0,0.9835,0.9837,0,0,0,0,0,0,0,0,0.9484,0.9494,0.9594,0.9597,0.9601,0.9675,0.9656,0.9741,0.9704,0.9666,0.9702,0.9701,0.9767,0.9776,0.9797,0.9874,0.9879,0.9835,0.9839,0.9841,0.9842,0,0,0,0,0,0,0,0.9478,0.949,0.9611,0.9595,0.96,0.9608,0.9619,0.9672,0.972,0.9669,0.9671,0.9683,0.9769,0.9792,0.98,0.9881,0.9835,0.984,0.9843,0.9845,1.0006,1.0007,0,0,0,0,0,0,0.9466,0.9485,0.9608,0.9615,0.9539,0.9612,0.9624,0.9652,0.972,0.9729,0.9683,0.9684,0.9783,0.9794,0.9804,0.9867,0.9841,0.9846,0.9849,1.0004,1.0006,1.0007,0,0,0,0,0,0,0.9463,0.9477,0.9604,0.955,0.9567,0.9616,0.9647,0.9655,0.9677,0.9731,0.974,0.9698,0.9783,0.9796,0.9853,0.9871,0.9848,0.9853,1.0003,1.0005,1.0006,0.9995,0,0,0,0,0,0,0.9458,0.9475,0.9494,0.9551,0.957,0.965,0.9648,0.9657,0.9686,0.9687,0.9746,0.9755,0.9783,0.9845,0.9858,0.9878,0.9857,1.0002,1.0004,1.0006,0.9994,0.9996,0.9998,0,0,0,0,0,0.9452,0.9487,0.9495,0.9509,0.9594,0.9651,0.9662,0.9692,0.9687,0.9707,0.9741,0.9753,0.9867,0.985,0.9865,0.9888,1.0001,1.0003,1.0006,0.9993,0.9995,0.9998,0,0,0,0,0,0,0.9433,0.9495,0.9504,0.9559,0.9599,0.9655,0.9681,0.9694,0.9738,0.9737,0.9774,0.9788,0.9841,0.987,0.985,0.994,0.9934,0.994,0.9919,0.9922,0.9924,0.9916,0.9861,0,0,0,0,0,0.9435,0.9475,0.9528,0.9571,0.9591,0.9632,0.9658,0.9678,0.9722,0.9739,0.9778,0.9821,0.9867,0.9896,0.9941,0.9998,1.0012,1.0021,1.0023,1.0024,1.0029,1.0062,1.0066,1.0015,1.0015,1.0015,0,0,0.9441,0.948,0.9503,0.9569,0.9602,0.9644,0.9647,0.9691,0.9722,0.9747,0.9802,0.9831,0.9882,0.9939,0.9966,0.9965,1.0046,1.0027,1.0028,1.0032,1.0065,1.0069,1.0074,1.0017,1.0017,1.0017,0,0,0.9472,0.9505,0.9545,0.9578,0.9628,0.9655,0.9665,0.9719,0.9739,0.9795,0.9814,0.9853,0.993,0.9966,0.9994,1.0038,1.0052,1.0052,1.0063,1.0094,1.0098,1.0102,1.0118,1.0124,1.0056,1.0056,1.0056,0,0.9472,0.9534,0.9564,0.9607,0.9636,0.9658,0.97,0.9731,0.9794,0.9814,0.9811,0.9908,0.9944,1.001,1.0021,1.0043,1.0056,1.0046,1.0095,1.0099,1.0103,1.0119,1.0125,1.0056,1.0056,1.0056,1.0056,0,0.9533,0.9576,0.9602,0.9661,0.9693,0.9735,0.9772,0.9801,0.9818,0.9846,0.9903,0.9946,1.0001,1.0018,1.0035,1.0086,1.0084,1.0087,1.0083,1.0107,1.0123,1.0129,1.0056,1.0056,1.0056,1.0056,0,0,0.9556,0.9629,0.9639,0.9666,0.9723,0.9757,0.9801,0.9852,0.9876,0.9919,0.9957,1.0022,1.0026,1.0058,1.0079,1.0107,1.014,1.0108,1.011,1.0113,1.02,1.0197,1.0203,1.0149,1.015,1.0151,1.0195,0,0.9594,0.9671,0.9699,0.9763,0.9803,0.9825,0.9863,0.9903,0.993,0.997,1.0001,1.0046,1.0048,1.0067,1.0095,1.013,1.0158,1.0127,1.0186,1.0188,1.0173,1.0211,1.0208,1.0248,1.0202,1.0203,1.0204,0,0.9649,0.9691,0.9758,0.981,0.9828,0.9862,0.9911,0.9948,0.9994,1.0013,1.0048,1.0068,1.0115,1.0107,1.0174,1.0152,1.0178,1.0198,1.0201,1.0208,1.0197,1.022,1.0262,1.0268,1.0213,1.0213,1.0212,0,0.966,0.9733,0.9783,0.9805,0.9867,0.989,0.9917,0.9962,0.9991,1.0035,1.0054,1.0104,1.0131,1.0169,1.0202,1.0193,1.0266,1.026,1.0284,1.0283,1.0299,1.0297,1.0346,1.0314,1.0314,1.0314,1.0314,0,0.97,0.9741,0.9788,0.9819,0.9865,0.9898,0.9943,0.9972,1.0012,1.0049,1.0072,1.0107,1.0148,1.0189,1.0215,1.0267,1.0279,1.0296,1.0303,1.0294,1.0292,1.0312,1.031,1.0316,1.0316,1.0315,1.0315,0,0.972,0.9753,0.9809,0.9862,0.9877,0.9909,0.9955,0.9987,1.0015,1.0062,1.0075,1.012,1.0169,1.0206,1.027,1.0288,1.0343,1.035,1.0327,1.033,1.0352,1.0349,1.0415,1.0425,1.0387,1.0387,1.0387,0,0.9743,0.9775,0.9831,0.9857,0.9884,0.9926,0.9955,0.9989,1.0019,1.0073,1.0098,1.0149,1.0191,1.0269,1.0308,1.0358,1.0366,1.0385,1.0374,1.0364,1.0367,1.0365,1.0368,1.0387,1.0387,1.0388,1.0388,0,0.9782,0.9797,0.9838,0.9885,0.9919,0.9958,0.9997,1.0018,1.0058,1.0091,1.0141,1.0174,1.0238,1.0289,1.0342,1.0371,1.0387,1.0391,1.0399,1.0391,1.0377,1.0385,1.0332,1.039,1.0389,1.0389,1.0389,1.0389,0.9805,0.9834,0.9878,0.9923,0.9956,0.9992,1.0024,1.0056,1.0097,1.0152,1.0169,1.0221,1.0267,1.034,1.037,1.0412,1.0411,1.0423,1.0426,1.0429,1.0428,1.037,1.0422,1.0422,1.0422,1.0422,1.0422,0,0.9845,0.9874,0.9915,0.9969,1.0005,1.0014,1.0059,1.0088,1.0133,1.0174,1.0214,1.0272,1.0321,1.0363,1.0414,1.044,1.0448,1.0452,1.0451,1.0457,1.0425,1.0413,1.0444,1.0444,1.0444,1.0444,1.0444,1.0444,0.987,0.992,0.994,1.0007,1.0036,1.0086,1.011,1.0144,1.0177,1.024,1.028,1.0307,1.0349,1.0403,1.0448,1.046,1.0478,1.048,1.0493,1.0462,1.046,1.0457,1.0446,1.0483,1.0484,1.0522,1.0522,1.0523]},{"header":{"parameterUnit":"m.s-1","parameterCategory":1,"la1":30.2991,"la2":30.254,"lo1":-89.0895,"lo2":-89.0444,"dy":0.0017,"dx":0.0017,"nx":28,"ny":28,"refTime":"2025-06-05T03:00:00:Z","depth":0,"parameterNumber":3,"parameterNumberName":"V-component_of_WINDS"},"data":[0,0,0,0,0,0,0,0,0,0,0,0,0,0,0,0,0,0,0,0,0,0,0,0,0,0,0,0,0,0,0,0,0,0,0,0,0,0,0,0,0,0,0,0,0,0,0,0,0,0,0,0,0,0,0,0,0,0,3.1219,3.1219,0,3.1212,3.1212,3.1212,3.122,3.122,3.1221,3.1221,3.1212,3.1211,3.1211,0,0,0,0,0,0,0,0,0,0,0,0,0,3.1237,3.1237,3.1219,3.1219,3.1219,3.1212,3.1212,3.1212,3.122,3.122,3.1221,3.1221,3.1212,3.1212,3.1211,0,0,0,0,0,0,0,0,0,0,0,0,0,3.1229,3.1237,3.1219,3.1222,3.1222,3.1212,3.1212,3.1212,3.122,3.122,3.1221,3.1221,3.1212,3.1212,3.1211,3.1197,0,0,3.1208,3.1208,0,0,0,0,0,0,0,0,3.123,3.1229,3.1222,3.1222,3.1222,3.1217,3.1215,3.1207,3.122,3.1221,3.1221,3.1221,3.1213,3.1212,3.121,3.1196,3.1196,3.1208,3.1208,3.1208,3.1207,0,0,0,0,0,0,0,3.123,3.1229,3.1216,3.1221,3.1222,3.1223,3.1222,3.1213,3.1214,3.1221,3.1221,3.122,3.1213,3.1211,3.121,3.1196,3.1208,3.1208,3.1207,3.1207,3.1168,3.1168,0,0,0,0,0,0,3.1231,3.123,3.1216,3.1216,3.1227,3.1222,3.1222,3.1218,3.1215,3.1214,3.122,3.1221,3.1212,3.1211,3.121,3.1191,3.1208,3.1207,3.1206,3.1169,3.1168,3.1167,0,0,0,0,0,0,3.1231,3.123,3.1217,3.1223,3.1221,3.1222,3.1218,3.1218,3.1215,3.1214,3.1214,3.1217,3.1212,3.1211,3.12,3.1191,3.1206,3.1206,3.1169,3.1168,3.1168,3.1156,0,0,0,0,0,0,3.1232,3.123,3.1225,3.1223,3.1221,3.1207,3.1217,3.1217,3.1214,3.1215,3.1211,3.1211,3.1212,3.1201,3.1199,3.1191,3.1205,3.117,3.1169,3.1168,3.1157,3.1155,3.1153,0,0,0,0,0,3.1232,3.1222,3.1225,3.1223,3.1215,3.1207,3.1206,3.1208,3.1213,3.1208,3.1207,3.1211,3.1193,3.1199,3.1197,3.1189,3.117,3.1169,3.1168,3.1158,3.1155,3.1153,0,0,0,0,0,0,3.1223,3.1222,3.1225,3.1213,3.121,3.1208,3.1202,3.1205,3.12,3.1201,3.1203,3.1202,3.119,3.1189,3.1196,3.1174,3.1182,3.1181,3.1175,3.1173,3.1171,3.1171,3.1204,0,0,0,0,0,3.1219,3.1213,3.1213,3.1202,3.1201,3.1201,3.1198,3.12,3.1196,3.1195,3.1193,3.1189,3.1182,3.1178,3.1171,3.1157,3.1155,3.115,3.1148,3.1146,3.1144,3.1135,3.1132,3.1163,3.1163,3.1163,0,0,3.1212,3.1211,3.1207,3.12,3.1198,3.1191,3.12,3.1193,3.1187,3.1194,3.1183,3.1181,3.1177,3.1164,3.1158,3.1162,3.1135,3.1145,3.1143,3.1142,3.1133,3.113,3.1128,3.1162,3.1163,3.1163,0,0,3.1195,3.1194,3.1185,3.1182,3.1179,3.1179,3.1177,3.1175,3.1174,3.1163,3.1168,3.1161,3.1149,3.1145,3.1142,3.1122,3.1125,3.112,3.1109,3.11,3.1097,3.1095,3.1087,3.1084,3.1119,3.1119,3.1119,0,3.1186,3.1176,3.1179,3.1171,3.1168,3.1174,3.1164,3.1161,3.1156,3.1153,3.1158,3.1142,3.114,3.1125,3.112,3.1118,3.1114,3.112,3.1098,3.1096,3.1094,3.1085,3.1082,3.1118,3.1118,3.1118,3.1118,0,3.1165,3.1158,3.1151,3.1145,3.1141,3.1132,3.1133,3.1129,3.1131,3.113,3.1118,3.1116,3.1108,3.1105,3.1107,3.109,3.1092,3.1098,3.1106,3.109,3.1082,3.1079,3.1117,3.1117,3.1117,3.1118,0,0,3.1141,3.1137,3.1135,3.1132,3.1128,3.1122,3.1113,3.1106,3.1102,3.1097,3.1089,3.1079,3.1083,3.1079,3.108,3.1073,3.1055,3.1078,3.1078,3.1073,3.1035,3.103,3.1027,3.1058,3.1057,3.1057,3.1035,0,3.1123,3.1107,3.111,3.1094,3.1087,3.1093,3.1084,3.1081,3.108,3.1073,3.1072,3.1064,3.1071,3.1069,3.1061,3.1059,3.1048,3.1061,3.1048,3.1048,3.1048,3.1023,3.1018,3.0997,3.1032,3.1031,3.1031,0,3.1099,3.1094,3.1078,3.1075,3.1072,3.1065,3.1058,3.1052,3.1047,3.1047,3.1042,3.1045,3.1035,3.1044,3.1028,3.1037,3.1032,3.103,3.103,3.1028,3.1038,3.1019,3.0991,3.0987,3.1027,3.1027,3.1027,0,3.1082,3.1071,3.106,3.1058,3.1054,3.1048,3.1046,3.1042,3.1038,3.1032,3.1028,3.1021,3.1017,3.101,3.101,3.1017,3.0994,3.1004,3.0992,3.0992,3.0986,3.0987,3.0956,3.0985,3.0985,3.0985,3.0986,0,3.106,3.105,3.1052,3.1045,3.1033,3.1036,3.1024,3.1022,3.1018,3.101,3.1015,3.1007,3.1008,3.1,3.1,3.0986,3.0984,3.0983,3.0983,3.0982,3.0982,3.0978,3.0978,3.0985,3.0985,3.0985,3.0985,0,3.1038,3.1039,3.1027,3.1025,3.1024,3.1015,3.1012,3.1005,3.1005,3.0994,3.0992,3.0991,3.0981,3.0981,3.097,3.0969,3.0952,3.0954,3.0954,3.0954,3.0942,3.0942,3.0906,3.0901,3.0935,3.0935,3.0935,0,3.1024,3.1016,3.1013,3.1008,3.1006,3.0998,3.0993,3.0995,3.099,3.0984,3.0977,3.0968,3.096,3.0944,3.0942,3.0933,3.0934,3.0922,3.0933,3.0931,3.0932,3.0932,3.093,3.0919,3.0919,3.0919,3.0919,0,3.0998,3.0999,3.0992,3.0986,3.098,3.0975,3.097,3.0965,3.0967,3.096,3.0951,3.0945,3.0934,3.0924,3.0915,3.0912,3.0914,3.0915,3.0912,3.091,3.091,3.0908,3.0947,3.0916,3.0916,3.0916,3.0917,3.0917,3.0978,3.0971,3.0967,3.096,3.0956,3.0951,3.0944,3.0943,3.0935,3.0926,3.0928,3.0917,3.0911,3.09,3.0896,3.0886,3.089,3.0886,3.0884,3.0883,3.0881,3.0912,3.0885,3.0885,3.0885,3.0885,3.0885,0,3.0951,3.0949,3.0942,3.0935,3.0929,3.0933,3.0928,3.0922,3.0912,3.0907,3.09,3.0888,3.0878,3.0875,3.0865,3.0858,3.0859,3.0855,3.0855,3.0854,3.0878,3.0882,3.0855,3.0855,3.0855,3.0855,3.0855,3.0855,3.0936,3.0924,3.0924,3.091,3.0907,3.0897,3.0893,3.0888,3.0884,3.0871,3.0863,3.0862,3.0857,3.0847,3.0837,3.0836,3.0832,3.0827,3.0827,3.0849,3.0852,3.0855,3.0858,3.0827,3.0827,3.0803,3.0803,3.0802]}]]